[Iaude] MPEC U59: 2016 UB26 [a=2.53,e=0.70,i=4.7,H=24.9]

mpec at si.edu mpec at si.edu
Mon Oct 24 10:03:39 EDT 2016


M.P.E.C. 2016-U59                                Issued 2016 Oct. 24, 13:59 UT
 
     The Minor Planet Electronic Circulars contain information on unusual
         minor planets and routine data on comets.  They are published
    on behalf of Division F of the International Astronomical Union by the
          Minor Planet Center, Smithsonian Astrophysical Observatory,
                          Cambridge, MA 02138, U.S.A.

             Prepared using the Tamkin Foundation Computer Network

                              MPC at CFA.HARVARD.EDU
            URL http://www.minorplanetcenter.net/    ISSN 1523-6714


                                   2016 UB26
 
Observations:
     K16U26B* C2016 10 22.31089 00 46 23.64 +28 06 58.5          19.3 VqEU059G96
     K16U26B  C2016 10 22.31622 00 46 20.75 +28 08 12.9          19.9 VqEU059G96
     K16U26B  C2016 10 22.32225 00 46 17.46 +28 09 36.4          19.9 VqEU059G96
     K16U26B  C2016 10 22.32652 00 46 15.12 +28 10 36.4          19.7 VqEU059G96
     K16U26B  C2016 10 22.34659 00 46 04.10 +28 15 17.0          20.4 VqEU059G96
     K16U26B  C2016 10 22.34700 00 46 03.87 +28 15 23.2          20.1 VqEU059G96
     K16U26B  C2016 10 22.34744 00 46 03.62 +28 15 28.7          20.4 VqEU059G96
     K16U26B  C2016 10 22.34786 00 46 03.39 +28 15 34.9          19.9 VqEU059G96
     K16U26B  C2016 10 22.44615 00 45 09.79 +28 38 41.0          19.8 VqEU059I52
     K16U26B  C2016 10 22.44668 00 45 09.51 +28 38 48.8          20.0 VqEU059I52
     K16U26B  C2016 10 22.44785 00 45 08.94 +28 39 06.1          20.1 VqEU059I52
     K16U26B  C2016 10 22.44945 00 45 08.01 +28 39 28.5          20.1 VqEU059I52
     K16U26B KC2016 10 22.82858 00 41 50.13 +30 16 41.7          20.0 RqEU059104
     K16U26B KC2016 10 22.83269 00 41 47.49 +30 17 48.3                qEU059104
     K16U26B KC2016 10 22.83293 00 41 47.41 +30 17 52.4                qEU059104
     K16U26B KC2016 10 22.84277 00 41 40.98 +30 20 33.4          20.0 RqEU059104
     K16U26B KC2016 10 22.85587 00 41 33.47 +30 23 46.2                qEU059J95
     K16U26B KC2016 10 22.85919 00 41 31.35 +30 24 40.4                qEU059J95
     K16U26B KC2016 10 22.86259 00 41 29.14 +30 25 36.9          19.8 RqEU059J95
     K16U26B  C2016 10 23.28761 00 36 43.53 +32 29 36.2          19.8 VqEU059G96
     K16U26B  C2016 10 23.29165 00 36 40.34 +32 30 50.5          19.8 VqEU059G96
     K16U26B  C2016 10 23.29207 00 36 40.04 +32 30 57.9          19.8 VqEU059G96
     K16U26B  C2016 10 23.29248 00 36 39.73 +32 31 05.6          19.9 VqEU059G96
     K16U26B  C2016 10 24.32869 00 20 51.09 +38 43 55.9          19.5 VqEU059G96
     K16U26B  C2016 10 24.32927 00 20 50.36 +38 44 10.6          19.7 VqEU059G96
     K16U26B  C2016 10 24.33038 00 20 49.00 +38 44 37.8          19.6 VqEU059G96
     K16U26B  C2016 10 24.33095 00 20 48.28 +38 44 52.0          19.6 VqEU059G96
 
Observer details:
104 San Marcello Pistoiese.  Observers P. Bacci, M. Maestripieri.  Measurers
    P. Bacci, L. Tesi, G. Fagioli.  0.60-m f/4 reflector + CCD.
G96 Mt. Lemmon Survey.  Observer R. G. Matheny.  Measurers E. J. Christensen,
    D. C. Fuls, A. R. Gibbs, A. D. Grauer, J. A. Johnson, R. A. Kowalski,
    S. M. Larson, G. J. Leonard, R. G. Matheny, R. L. Seaman, F. C. Shelly.
    1.5-m reflector + 10K CCD.
I52 Steward Observatory, Mt. Lemmon Station.  Observer A. R. Gibbs.  Measurers
    E. J. Christensen, D. C. Fuls, A. R. Gibbs, A. D. Grauer, J. A. Johnson,
    R. A. Kowalski, S. M. Larson, G. J. Leonard, R. G. Matheny, R. L. Seaman,
    F. C. Shelly.  1.0-m reflector + CCD.
J95 Great Shefford.  Observer P. Birtwhistle.  0.40-m f/6.0 Schmidt-Cassegrain
    + CCD.
 
Orbital elements:
2016 UB26                                                Earth MOID = 0.0297 AU
Epoch 2016 July 31.0 TT = JDT 2457600.5                 MPC
M 328.13940              (2000.0)            P               Q
n   0.24506319     Peri.   87.65795     -0.19124874     -0.98135871
a   2.5290107      Node    13.41293     +0.86496427     -0.17762749
e   0.7031340      Incl.    4.68525     +0.46396200     -0.07337279
P   4.02           H   24.9           G   0.15           U   5
Residuals in seconds of arc
161022 G96  0.3-  0.1-    161022 I52  0.2-  0.0     161022 J95  0.3-  0.2+
161022 G96  0.1+  0.0     161022 I52  0.6+  0.7+    161023 G96  0.3+  0.4-
161022 G96  0.3+  0.6-    161022 I52  0.3-  0.3+    161023 G96  0.1-  0.2-
161022 G96  0.3+  0.2-    161022 104  0.3+  0.8+    161023 G96  0.2+  0.5-
161022 G96  0.1+  0.2-    161022 104  0.3+  0.1+    161023 G96  0.4+  0.3-
161022 G96  0.0   0.3+    161022 104  1.3+  0.3+    161024 G96  0.1+  0.2-
161022 G96  0.1-  0.4-    161022 104  0.2+  0.0     161024 G96  0.1-  0.2+
161022 G96  0.1-  0.1-    161022 J95  0.1-  0.3+    161024 G96  0.0   0.0
161022 I52  0.3-  0.3-    161022 J95  0.0   0.2-    161024 G96  0.2-  0.1+

Ephemeris:
2016 UB26                a,e,i = 2.53, 0.70, 5                   q = 0.7508
Date    TT    R. A. (2000) Decl.     Delta      r     Elong.  Phase     V
2016 09 24    01 23 13.0 +06 32 43   0.3673  1.3531   159.4    15.1    24.2
...
2016 10 09    01 19 24.8 +10 16 48   0.1951  1.1929   173.5     5.5    22.2
...
2016 10 17    01 09 12.2 +16 14 24   0.1130  1.1085   171.6     7.5    20.9
...
2016 10 23    00 40 00.9 +31 04 33   0.05705 1.0466   154.4    24.3    19.9
2016 10 24    00 26 50.2 +36 32 46   0.04885 1.0365   148.3    30.3    19.7
2016 10 25    00 05 21.1 +43 53 22   0.04145 1.0264   140.0    38.5    19.6
...
2016 10 31    14 49 23.9 +38 27 29   0.04258 0.9677    53.0   125.0    23.2
...
2016 11 08    13 55 11.1 +11 23 29   0.1140  0.8954    31.4   144.8    27.5
...
2016 11 23    13 48 55.7 +01 22 05   0.2710  0.7907    37.7   130.2    27.3

A. U. Tomatic                (C) Copyright 2016 MPC           M.P.E.C. 2016-U59




More information about the Iaude mailing list